Miscellaneous Local Product
Issued by NWS North Platte, NE

Home | Current Version | Previous Version | Text Only | Print | Product List | Glossary On
Versions: 1 2 3 4 5 6 7 8 9 10 11 12 13 14 15 16 17 18 19 20 21 22 23 24 25 26 27 28 29 30 31 32 33 34 35 36 37 38 39 40 41 42 43 44 45 46 47 48 49 50
000
AXUS43 KLBF 031010
MISLBF


WESTERN AND NORTH CENTRAL NEBRASKA HOURLY WEATHER ROUNDUP
NATIONAL WEATHER SERVICE NORTH PLATTE NE
500 AM CDT FRI JUL 03 2015

***STATIONS NOT REPORTING VARIABLES SUCH AS SKY/WEATHER OR
PRESSURE ARE PROVIDED BY THE NEBRASKA DEPARTMENT OF
ROADS...RAWS...AND APRS NETWORKS...AND ARE NOT UNDER
NATIONAL WEATHER SERVICE QUALITY CONTROL***

...OBSERVATIONS IN AND NEAR THE EASTERN PANHANDLE OF NEBRASKA...

CITY           SKY/WX    TMP DP  RH WIND       PRES   REMARKS
PINE RIDGE     CLEAR     55  53  93 CALM      30.09S FOG
CHADRON        CLEAR     58  55  90 SW6       30.09F
ALLIANCE       PTCLDY    58  56  93 W6        30.11S
SIDNEY         PTCLDY    58  57  97 NW3       30.15S
WHITECLAY        N/A     54  53  95 SE5         N/A
CRESCENT LAKE    N/A     61  57  87 CALM        N/A
BIG SPRINGS      N/A     62  60  94 CALM        N/A
$$

...OBSERVATIONS IN NORTH CENTRAL NEBRASKA...

CITY           SKY/WX    TMP DP  RH WIND       PRES   REMARKS
VALENTINE      CLEAR     57  56  96 CALM      30.04S
THEDFORD       PTCLDY    60  59  97 CALM      30.06S FOG
AINSWORTH      FOG       58  58  99 CALM      30.05R VSB 3/4
O`NEILL        FOG       61  60  99 W5        30.02S VSB 1
ORD            CLEAR     58  56  93 CALM      30.01S
BROKEN BOW     CLOUDY    63  62  97 N5        30.04S FOG
VALENTINE NWR    N/A     59  58  97 W3          N/A
SPRINGVIEW       N/A     61  60  95 CALM        N/A
HALSEY           N/A     58  57  98 CALM        N/A
BREWSTER         N/A     66  66  99 CALM        N/A
ROSE             N/A     73  72  99 CALM        N/A
NEWPORT          N/A     64  64  99 CALM        N/A
SARGENT          N/A     63  61  93 CALM        N/A
CHAMBERS         N/A     60  59  96 CALM        N/A
EWING            N/A     60  59  97 CALM        N/A
$$

...OBSERVATIONS IN SOUTHWEST NEBRASKA AND FAR NORTHEAST COLORADO...

CITY           SKY/WX    TMP DP  RH WIND       PRES   REMARKS
WRAY           PTSUNNY   61  58  90 W7        30.13R
HOLYOKE        PTSUNNY   61  55  82 W6        30.11S
IMPERIAL       PTCLDY    62  57  83 NW5       30.08R
OGALLALA       CLEAR     60  59  96 CALM      30.08S
NORTH PLATTE   CLEAR     58  55  90 CALM      30.06R
MCCOOK         PTCLDY    61  58  90 W5        30.04S
LEXINGTON      CLOUDY    63  62  97 NE5       30.04S FOG
PAXTON           N/A     60  57  91 CALM        N/A
GOTHENBURG       N/A     62  58  87 CALM        N/A
CALLAWAY         N/A     63  62  97 CALM        N/A
$$

...NORTH PLATTE AREA...

CITY           SKY/WX    TMP DP  RH WIND       PRES   REMARKS
AIRPORT        CLEAR     58  55  90 CALM      30.06R
DOWNTOWN         N/A     61  58  88 CALM        N/A
HILLCREST        N/A     59  57  92 CALM        N/A
$$

...SOME WEATHER OBSERVATIONS FROM AROUND THE REGION...

CITY           SKY/WX    TMP DP  RH WIND       PRES   REMARKS
DENVER         PTCLDY    56  54  93 SE6       30.16F
LARAMIE        CLEAR     51  47  86 S10       30.27F
CHEYENNE       CLEAR     58  53  84 NW3       30.22S
SCOTTSBLUFF    CLEAR     61  59  93 NE5       30.12S
RAPID CITY     CLEAR     60  56  86 NW8       30.08S
PIERRE         FOG       61  61 100 CALM      29.99S VSB 1
WINNER         FOG       62  59  90 S5        30.01F VSB 1/4
SIOUX FALLS    FOG       53  52  96 CALM      30.01S VSB 1/4
OMAHA          PTCLDY    57  55  93 N6        29.98F
GRAND ISLAND   CLOUDY    64  63  96 NE7       30.01S FOG
KANSAS CITY    CLOUDY    65  62  90 E9        29.93S
WICHITA        PTCLDY    68  65  90 CALM      29.91S
HAYS           CLEAR     64  55  72 NW5       29.99S
LIBERAL        CLEAR     64  59  82 NW3       30.05R
GOODLAND       PTCLDY    58  55  90 CALM      30.08F
$$



USA.gov is the U.S. government's official web portal to all federal, state and local government web resources and services.